Location: Batang Balui
(2.7000°N, 113.7833°E)
Time: 23:00:01
(UTC+00:00)

Atlas Centaur 2 - Pass Details

Date: 03 December 2021
Orbit: 459 x 1307 km, 30.4° (Epoch: 27 January)

Event Time Altitude Azimuth Distance (km) Brightness Sun altitude
Rises 11:03:10 0° 316° (NW) 2,453 4.9 -12.2°
Reaches altitude 10° 11:05:24 10° 327° (NNW) 1,590 3.8 -12.7°
Maximum altitude 11:08:39 33° 33° (NNE) 824 1.8 -13.5°
Enters shadow 11:10:09 24° 76° (ENE) 1,063 2.2 -13.8°
